Location: Chervonnoye
(48.6000°N, 34.4000°E)
Time: 20:09:17
(UTC+00:00)

RS-44 - Pass Details

Date: 29 November 2021
Orbit: 1175 x 1510 km, 82.5° (Epoch: 19 January)

Event Time Altitude Azimuth Distance (km) Brightness Sun altitude
Rises 18:03:09 0° 196° (SSW) 4,154 ? -40.9°
Enters shadow 18:03:34 - 196° (SSW) 4,001 ? -41.0°
Exits shadow 18:22:28 - 9° (N) 3,868 ? -44.0°
Sets 18:23:04 0° 9° (N) 4,084 ? -44.1°
